Simultaneous Nadir Overpasses (SNOs) Predictions

Prediction of SNOs between GOES-15 and METOP-C Satellite Orbit:

Table of predicted SNOs for the next 14.0 days since TLE Epoch: 4/17/2021
Index Date Time (GOES-15) GOES-15 Lat,Lon METOP-C Lat,Lon Distance(km) Time Diff (sec)
1 04/18/2021 18:02:58 0.09,-127.95 0.14,-128.08 16.06 80
2 04/21/2021 06:01:19 -0.08,-127.77 -0.06,-127.68 10.29 80
3 04/23/2021 18:02:11 0.08,-127.76 -0.01,-127.24 57.70 80
4 04/25/2021 06:21:11 -0.07,-127.62 -1.03,-131.84 481.29 80
5 04/26/2021 05:57:52 -0.08,-127.58 0.08,-126.85 83.08 80
6 04/27/2021 18:16:43 0.07,-127.58 0.94,-131.40 436.12 80
7 04/28/2021 17:58:44 0.07,-127.54 -0.17,-126.41 128.28 80
8 04/30/2021 06:17:44 -0.06,-127.39 -0.88,-131.00 411.60 80
